Wind_Speed
21 23 24 25 28 30 30 31 33 35 38 40 42 45 47 50 53 53 53 55 56 58 56 54 51 51 52 56 61 65 69 69 70 71 73 71 75 75 73 62 63 64 70 73
24 25 27 28 30 32 34 35 37 39 42 43 45 48 51 54 56 58 58 60 61 61 62 61 59 59 60 63 66 67 69 68 69 70 69 66 69 60 64 64 72 77 78 79
27 29 31 32 33 35 37 39 41 45 47 49 51 54 53 58 58 59 61 63 65 65 65 66 65 67 67 67 69 68 69 68 65 66 63 59 62 59 62 68 73 78 85 86
30 32 34 35 38 40 41 44 45 48 50 53 53 56 55 58 57 59 59 58 60 60 61 60 62 65 68 69 70 70 67 66 65 59 59 58 63 69 74 75 73 80 82 87
35 37 40 43 43 44 43 44 48 50 52 51 47 48 53 54 55 57 59 60 60 60 62 61 62 62 62 63 66 66 67 66 64 64 63 70 80 79 79 85 86 86 92 92
41 43 43 43 42 44 45 47 48 41 40 44 42 44 49 49 52 54 56 58 60 59 60 59 58 57 57 57 59 62 64 66 69 69 74 79 86 91 91 95 96 94 97 101
45 46 44 45 46 45 43 39 32 33 40 44 46 49 53 57 59 61 62 60 56 57 58 55 56 59 59 62 63 64 66 67 70 68 78 78 83 88 93 96 96 100 96 93
48 46 47 45 41 35 32 35 35 36 42 46 48 52 54 59 60 63 65 65 60 59 58 58 60 59 60 61 58 56 59 63 68 74 82 84 83 89 93 92 96 97 100 100
49 47 42 34 31 32 33 37 40 42 46 47 52 55 59 66 65 65 67 65 62 61 60 61 63 60 58 56 56 56 58 59 61 65 70 74 79 82 84 86 88 91 90 91
43 39 31 30 35 35 43 43 46 49 48 51 57 59 60 65 66 65 68 68 64 61 62 61 61 59 58 60 61 62 62 64 65 66 67 71 75 79 82 85 88 91 93 94
35 35 33 37 41 46 47 48 51 53 56 58 58 63 63 66 67 65 68 67 64 61 62 62 61 60 61 63 65 66 69 71 72 74 76 79 82 84 86 89 91 93 95 98
34 35 40 45 49 52 55 56 56 59 61 63 63 63 65 69 67 68 68 66 64 63 64 65 64 61 62 66 67 70 71 74 77 81 84 86 87 88 89 91 92 94 95 95
38 42 47 52 53 56 60 60 62 63 64 64 64 69 65 68 65 67 67 66 64 61 62 61 58 58 61 64 69 72 75 77 79 81 83 84 84 86 86 85 85 85 85 84
43 47 52 55 58 61 63 67 67 67 63 65 67 70 69 67 66 66 65 63 59 59 58 56 57 60 64 67 70 74 76 79 80 79 79 79 78 77 77 75 73 72 71 70
51 54 57 62 64 66 67 68 67 67 69 70 70 68 67 65 64 65 61 56 55 56 56 57 60 64 70 71 71 70 68 68 69 68 68 68 67 67 65 63 63 60 58 56
59 61 62 64 66 67 68 68 69 71 71 70 68 65 64 64 66 60 52 54 56 56 60 62 65 68 68 64 61 61 62 63 62 61 62 60 59 57 55 52 49 47 44 42
61 63 64 66 69 71 70 70 71 70 67 65 62 62 65 63 55 50 52 53 56 59 60 61 64 61 56 56 59 61 61 58 54 50 46 42 40 38 35 31 29 28 27 28
64 66 68 70 73 70 71 71 68 66 65 63 64 63 58 50 46 49 51 54 58 58 57 56 49 42 46 51 52 49 44 39 34 31 27 25 23 19 17 15 14 14 13 13
66 68 72 72 70 68 68 64 63 66 66 62 58 52 46 44 44 48 52 54 53 51 48 37 30 36 41 44 41 37 33 29 25 21 18 15 13 11 10 10 11 12 14 15
67 65 66 68 65 64 64 65 63 61 59 54 49 43 41 42 44 47 49 48 48 44 28 21 27 34 42 48 46 41 36 33 29 26 23 21 20 18 17 15 14 14 16 15
63 62 63 62 61 62 62 61 58 54 50 47 41 39 40 43 45 48 48 49 41 25 12 20 26 31 37 40 39 40 39 37 33 30 27 24 21 21 20 18 17 19 22 22
56 58 59 60 60 60 58 55 51 47 45 41 39 39 41 43 45 46 47 38 24 6 10 17 25 28 30 32 33 36 37 35 32 29 29 28 26 25 25 25 26 29 31 31
57 56 55 57 57 56 54 49 46 43 40 38 38 39 40 41 43 44 36 24 5 3 10 14 17 20 22 25 27 31 34 35 35 36 36 34 35 36 36 35 33 33 36 38
54 55 57 57 55 52 49 43 39 37 36 35 36 37 39 39 39 34 22 7 4 6 8 8 12 15 17 19 22 27 28 28 31 34 38 42 43 44 48 48 44 40 40 43
52 53 52 51 51 48 41 38 34 33 34 36 36 37 36 34 31 22 9 7 7 5 5 7 9 13 14 15 17 21 24 21 25 30 34 39 41 44 48 50 53 52 50 47
48 47 48 49 47 41 36 31 31 32 34 34 34 33 31 29 22 10 4 9 7 4 3 5 7 10 13 12 12 15 19 18 19 25 30 33 38 40 43 44 45 49 56 61
Wind_Direction
280 282 284 286 288 290 292 292 291 291 290 289 290 291 290 290 289 289 290 291 291 289 289 285 286 279 278 278 276 277 280 284 286 288 290 290 286 287 286 287 287 285 290 285
283 285 287 288 288 289 291 292 293 293 293 292 291 290 293 293 292 292 291 290 289 289 289 288 285 283 280 278 279 282 283 284 285 286 286 283 281 283 283 283 277 284 286 281
289 290 291 292 294 294 295 294 295 296 295 294 294 293 293 292 293 293 293 292 291 290 289 287 285 282 279 278 279 279 280 282 282 281 277 275 278 273 272 270 273 272 277 274
290 291 294 296 295 294 295 298 297 294 295 297 298 297 295 295 295 294 294 294 294 293 291 288 286 282 279 278 276 277 277 278 281 277 267 269 270 269 269 270 269 273 275 273
296 296 296 296 297 298 298 295 294 296 298 299 300 301 300 303 304 303 302 299 297 294 291 289 286 284 281 278 276 277 276 272 278 268 264 267 266 266 268 268 268 272 275 271
296 294 295 296 297 297 295 295 296 302 306 305 305 301 302 306 309 309 309 303 298 297 297 294 291 287 284 279 277 275 274 272 273 263 257 270 263 263 265 268 274 276 280 275
295 297 298 298 297 295 294 294 301 304 305 304 307 306 307 310 310 312 316 312 303 303 301 295 289 287 285 284 284 284 283 282 279 271 269 271 269 265 272 272 277 273 278 280
297 298 297 297 295 291 290 297 299 302 306 306 309 306 309 310 311 310 313 315 309 307 305 298 295 294 291 289 286 283 282 279 274 269 269 271 272 269 273 274 274 277 278 279
296 297 297 292 287 290 295 298 301 306 306 305 305 308 308 310 311 308 312 313 310 308 306 299 298 296 293 290 288 285 283 281 279 276 274 272 271 273 274 275 274 275 277 278
296 296 293 292 294 297 301 302 300 303 304 304 305 307 308 308 309 307 310 311 308 308 307 302 298 296 293 291 292 291 290 288 286 284 281 279 277 276 276 275 275 277 278 281
296 296 293 295 294 298 301 301 301 302 303 304 306 304 306 305 307 306 308 309 307 306 304 303 299 296 294 293 292 292 292 291 288 286 285 283 282 281 280 279 279 280 280 281
293 292 292 293 294 297 299 303 302 303 305 305 305 303 306 304 304 305 307 307 305 303 304 304 298 295 294 293 293 291 288 286 285 285 285 284 283 282 281 281 282 282 282 283
288 287 287 290 291 296 298 300 301 304 305 304 304 302 304 303 301 303 305 305 305 304 304 303 300 298 297 294 292 292 291 290 289 287 286 286 285 284 284 284 284 284 285 285
289 288 290 294 296 298 299 300 302 303 304 304 303 303 302 301 302 304 305 304 303 305 306 305 304 304 303 302 300 297 295 293 291 289 287 287 286 287 287 286 286 286 285 285
294 296 296 297 298 299 301 302 304 305 304 302 301 301 301 302 303 304 305 304 305 306 306 306 306 307 308 306 303 299 295 293 292 291 290 289 288 288 288 287 287 288 290 288
296 297 298 299 299 299 300 300 302 302 302 302 301 302 303 305 306 306 306 307 307 306 307 307 307 309 309 308 305 303 300 299 298 299 297 295 292 290 289 289 289 288 287 288
297 297 297 298 300 300 300 301 301 300 301 301 302 302 304 305 305 305 305 306 307 306 306 310 315 316 315 311 309 308 307 306 304 301 298 296 296 295 295 293 294 293 293 291
296 297 297 298 299 298 299 300 300 301 301 302 302 303 303 303 304 304 305 304 307 312 315 318 321 320 321 321 318 319 319 318 317 312 310 309 310 310 310 310 308 308 313 315
297 297 297 297 297 297 297 298 299 300 301 302 303 303 301 303 304 304 307 309 312 317 322 325 327 341 347 345 345 346 347 349 350 349 351 356 5 16 31 38 22 1 349 344
296 296 296 296 297 298 299 299 300 300 302 304 303 301 303 302 304 308 311 315 320 323 329 337 359 9 17 20 16 18 19 20 24 31 42 50 54 52 46 38 26 13 12 15
295 296 297 298 299 300 300 302 301 302 302 302 298 299 301 305 308 311 315 319 322 329 347 11 31 35 36 36 28 26 28 29 32 37 45 49 52 52 52 50 48 44 43 45
295 297 298 298 300 301 301 301 301 300 299 297 297 301 304 306 309 312 314 320 326 326 17 31 42 44 44 36 31 27 28 35 38 46 53 57 60 66 67 65 63 56 54 58
295 298 300 303 304 304 303 302 300 298 298 298 299 301 304 305 308 311 317 322 307 63 51 48 48 46 36 35 32 30 30 36 42 52 61 66 68 68 68 68 68 64 63 65
298 301 304 306 308 310 308 303 299 297 299 300 301 302 302 306 311 317 320 317 179 107 73 55 26 30 30 27 28 30 33 37 52 62 69 70 70 70 69 69 70 72 70 71
300 304 306 310 312 312 309 304 301 302 304 304 304 303 308 312 315 322 312 167 159 108 75 41 22 12 17 24 27 26 31 48 62 75 74 72 71 74 74 71 71 73 77 78
303 307 311 315 315 313 311 309 306 306 305 306 307 310 314 314 319 316 179 167 160 107 59 18 7 13 9 12 17 27 34 57 78 85 82 81 79 79 77 75 76 77 81 83
Height
10862 10862 10861 10860 10858 10856 10854 10851 10848 10846 10842 10839 10835 10831 10828 10821 10815 10813 10811 10805 10801 10795 10796 10793 10792 10784 10781 10774 10765 10757 10750 10746 10739 10732 10724 10719 10711 10706 10697 10693 10687 10685 10682 10680
10858 10857 10855 10853 10852 10850 10848 10845 10842 10839 10834 10831 10826 10822 10817 10810 10803 10800 10797 10791 10787 10783 10779 10776 10775 10769 10765 10756 10749 10743 10736 10732 10726 10716 10710 10704 10696 10691 10684 10679 10676 10670 10667 10664
10852 10850 10848 10847 10846 10844 10840 10837 10833 10828 10824 10820 10815 10808 10807 10797 10792 10788 10782 10776 10771 10768 10763 10758 10756 10750 10745 10741 10733 10729 10722 10717 10709 10701 10694 10688 10681 10675 10671 10665 10661 10656 10652 10647
10846 10845 10843 10841 10838 10835 10833 10828 10823 10817 10814 10808 10804 10795 10793 10782 10780 10773 10769 10765 10757 10752 10746 10742 10736 10731 10725 10720 10715 10709 10707 10698 10690 10685 10678 10671 10665 10658 10654 10649 10646 10640 10635 10630
10840 10838 10835 10832 10829 10825 10822 10817 10811 10807 10802 10797 10794 10783 10773 10769 10766 10761 10753 10747 10741 10735 10728 10725 10718 10713 10707 10701 10696 10690 10687 10682 10675 10667 10661 10656 10650 10644 10638 10634 10629 10623 10618 10615
10832 10829 10826 10823 10820 10815 10810 10806 10801 10798 10791 10785 10783 10774 10764 10760 10756 10750 10741 10733 10724 10716 10708 10702 10697 10693 10689 10683 10678 10672 10668 10663 10657 10650 10643 10640 10633 10628 10623 10617 10610 10605 10600 10594
10821 10818 10816 10813 10809 10805 10800 10796 10794 10790 10783 10776 10772 10763 10755 10748 10742 10734 10726 10717 10709 10701 10693 10686 10681 10676 10671 10665 10658 10653 10646 10640 10635 10631 10627 10622 10615 10611 10605 10598 10593 10586 10581 10576
10810 10809 10804 10801 10797 10794 10791 10788 10786 10783 10775 10766 10759 10752 10745 10736 10728 10720 10712 10703 10694 10686 10678 10670 10664 10658 10653 10648 10642 10638 10631 10624 10618 10613 10606 10601 10595 10590 10585 10580 10571 10566 10560 10555
10800 10797 10795 10791 10788 10786 10784 10780 10775 10772 10766 10759 10748 10740 10730 10720 10715 10706 10698 10690 10681 10673 10665 10657 10650 10642 10635 10631 10626 10620 10614 10608 10601 10595 10590 10585 10578 10570 10563 10557 10551 10545 10539 10533
10788 10785 10784 10783 10778 10778 10771 10770 10765 10761 10757 10750 10738 10729 10720 10710 10702 10693 10685 10676 10668 10661 10652 10643 10635 10627 10620 10613 10607 10601 10595 10588 10582 10576 10570 10563 10555 10548 10541 10535 10530 10524 10516 10510
10779 10775 10774 10771 10768 10763 10762 10759 10753 10749 10742 10734 10730 10715 10708 10697 10689 10681 10672 10664 10655 10647 10638 10629 10620 10613 10605 10597 10589 10583 10575 10567 10560 10553 10546 10537 10530 10524 10517 10510 10505 10500 10494 10487
10772 10769 10765 10761 10757 10754 10748 10743 10739 10734 10730 10721 10714 10705 10696 10683 10675 10666 10657 10649 10641 10633 10624 10614 10606 10598 10590 10581 10573 10564 10556 10546 10538 10529 10520 10511 10504 10498 10491 10485 10480 10474 10467 10461
10765 10761 10755 10750 10750 10744 10736 10732 10726 10722 10714 10707 10698 10684 10683 10672 10663 10654 10644 10636 10628 10619 10610 10601 10592 10583 10575 10566 10555 10546 10535 10525 10515 10505 10496 10487 10480 10472 10466 10461 10455 10449 10443 10437
10754 10750 10745 10740 10734 10729 10724 10716 10713 10707 10700 10691 10682 10672 10665 10658 10649 10639 10631 10623 10615 10606 10596 10587 10577 10568 10559 10547 10535 10524 10513 10501 10490 10479 10470 10462 10455 10450 10443 10438 10433 10426 10420 10415
10742 10738 10733 10726 10720 10713 10707 10698 10694 10688 10682 10675 10664 10656 10648 10641 10633 10625 10616 10609 10601 10593 10583 10574 10565 10553 10541 10528 10514 10501 10488 10477 10466 10458 10448 10441 10434 10428 10423 10418 10412 10409 10404 10400
10729 10725 10719 10711 10704 10698 10693 10686 10679 10671 10663 10655 10647 10639 10630 10624 10615 10607 10602 10594 10587 10579 10571 10561 10550 10537 10523 10508 10493 10479 10467 10456 10445 10437 10428 10423 10415 10411 10406 10402 10399 10395 10390 10387
10717 10712 10705 10697 10691 10682 10676 10670 10664 10654 10647 10640 10632 10625 10618 10611 10602 10595 10589 10582 10575 10568 10559 10548 10535 10520 10506 10492 10477 10462 10449 10438 10429 10421 10413 10408 10404 10399 10396 10392 10389 10385 10382 10379
10704 10697 10690 10683 10675 10668 10660 10653 10645 10638 10630 10625 10618 10611 10603 10598 10593 10584 10579 10572 10565 10555 10546 10536 10524 10512 10499 10482 10465 10449 10435 10424 10416 10410 10405 10401 10397 10393 10390 10386 10384 10381 10378 10375
10689 10683 10676 10667 10659 10653 10644 10638 10631 10622 10614 10610 10603 10597 10591 10586 10582 10575 10569 10562 10554 10546 10537 10527 10519 10507 10492 10474 10457 10442 10429 10419 10412 10407 10403 10399 10395 10392 10389 10386 10384 10380 10376 10373
10675 10668 10661 10653 10646 10638 10629 10622 10617 10610 10601 10595 10590 10586 10581 10576 10571 10566 10559 10552 10544 10537 10529 10523 10515 10503 10489 10474 10460 10445 10434 10425 10417 10412 10408 10404 10400 10396 10392 10389 10386 10383 10379 10374
10661 10653 10645 10638 10631 10624 10615 10608 10602 10596 10591 10584 10579 10575 10571 10566 10561 10554 10548 10541 10535 10530 10525 10520 10512 10502 10493 10482 10473 10459 10449 10439 10430 10423 10417 10411 10406 10402 10399 10396 10392 10388 10382 10376
10647 10640 10634 10627 10619 10611 10603 10596 10591 10585 10580 10574 10570 10566 10561 10557 10551 10545 10539 10534 10528 10525 10522 10517 10511 10504 10497 10490 10483 10472 10461 10452 10444 10436 10427 10420 10415 10411 10407 10403 10398 10394 10388 10382
10634 10628 10622 10614 10605 10597 10591 10584 10579 10574 10570 10565 10561 10557 10553 10549 10543 10537 10531 10526 10524 10522 10519 10516 10512 10506 10500 10494 10489 10482 10474 10465 10456 10447 10438 10432 10426 10422 10417 10412 10407 10404 10399 10392
10621 10615 10608 10599 10593 10585 10578 10573 10567 10564 10561 10557 10553 10549 10545 10540 10535 10529 10524 10522 10521 10520 10518 10515 10512 10507 10503 10498 10494 10489 10483 10476 10469 10461 10453 10446 10441 10435 10430 10425 10420 10415 10411 10405
10611 10603 10596 10590 10582 10574 10568 10563 10559 10556 10552 10548 10544 10540 10536 10531 10526 10522 10519 10519 10519 10518 10517 10515 10512 10508 10504 10501 10498 10494 10490 10485 10479 10473 10467 10462 10456 10450 10445 10440 10436 10431 10424 10421
10601 10594 10587 10580 10572 10565 10560 10555 10551 10548 10544 10540 10535 10532 10528 10523 10520 10517 10516 10517 10517 10516 10515 10514 10511 10508 10506 10504 10501 10498 10494 10490 10487 10483 10478 10474 10470 10465 10460 10456 10452 10447 10443 10438